[[{"header":{"parameterUnit":"m.s-1","parameterCategory":1,"la1":30.2992,"la2":30.254,"lo1":-89.0895,"lo2":-89.0443,"dy":0.0025,"dx":0.0025,"nx":19,"ny":19,"refTime":"2026-04-04T21:00:00:Z","depth":0,"parameterNumber":2,"parameterNumberName":"U-component_of_WINDS"},"data":[0,0,0,-1.7039,-1.7041,-1.7115,-1.7116,-1.7215,-1.7216,0,0,0,0,0,0,0,0,0,0,0,-1.7017,-1.7017,-1.7039,-1.7041,-1.7115,-1.7116,-1.7215,-1.7216,0,0,0,0,0,0,0,0,0,0,0,-1.7016,-1.7017,-1.7018,-1.7041,-1.7115,-1.7116,-1.7214,-1.7157,0,0,0,0,0,0,0,0,0,0,-1.7084,-1.7063,-1.7017,-1.7018,-1.7041,-1.7115,-1.7116,-1.7154,-1.7161,-1.7182,0,-1.7198,0,-1.7208,-1.7222,-1.7223,0,0,0,-1.7041,-1.7058,-1.7078,-1.7018,-1.7042,-1.7115,-1.7082,-1.7158,-1.7165,-1.719,-1.72,-1.7203,-1.721,-1.7223,-1.7223,-1.7337,-1.7337,0,0,-1.7037,-1.7031,-1.7073,-1.7082,-1.7069,-1.7079,-1.7084,-1.7162,-1.7173,-1.72,-1.7206,-1.7212,-1.7224,-1.7224,-1.7336,-1.7337,0,0,0,-1.7025,-1.7028,-1.7046,-1.7078,-1.7091,-1.7082,-1.7087,-1.717,-1.7176,-1.7207,-1.7213,-1.7224,-1.7225,-1.7336,-1.7337,-1.7354,0,0,0,-1.7022,-1.7021,-1.7044,-1.7041,-1.709,-1.7131,-1.7093,-1.7171,-1.718,-1.7212,-1.7224,-1.7226,-1.7335,-1.7336,-1.7353,-1.7364,0,0,0,-1.7012,-1.7019,-1.703,-1.704,-1.7072,-1.713,-1.7141,-1.7173,-1.7183,-1.7223,-1.7227,-1.7335,-1.7336,-1.7351,-1.7362,-1.7392,0,0,0,-1.7,-1.7046,-1.703,-1.7084,-1.7071,-1.714,-1.714,-1.7192,-1.7228,-1.7225,-1.7335,-1.7336,-1.7351,-1.736,-1.739,-1.7416,-1.7426,0,0,-1.7054,-1.7052,-1.7084,-1.7073,-1.7142,-1.7129,-1.7202,-1.7241,-1.7252,-1.7309,-1.7311,-1.7353,-1.7362,-1.7392,-1.7485,-1.7493,0,0,0,-1.71,-1.7123,-1.7143,-1.7175,-1.7206,-1.7233,-1.7262,-1.7277,-1.7325,-1.7279,-1.7372,-1.7378,-1.7396,-1.7409,-1.7415,-1.7432,-1.7342,-1.7342,-1.7342,-1.7169,-1.7178,-1.7233,-1.7251,-1.7283,-1.7313,-1.734,-1.7366,-1.7367,-1.7389,-1.7406,-1.7461,-1.7476,-1.7481,-1.7498,-1.7421,-1.7421,-1.7421,-1.7421,-1.725,-1.7285,-1.7284,-1.7337,-1.7348,-1.7393,-1.7424,-1.7423,-1.7468,-1.7449,-1.7466,-1.7444,-1.7489,-1.7505,-1.7422,-1.7422,-1.7422,-1.7422,-1.7421,-1.7296,-1.7315,-1.7331,-1.7379,-1.7416,-1.7434,-1.7476,-1.7485,-1.7494,-1.751,-1.7529,-1.7529,-1.753,-1.7519,-1.7519,-1.7519,-1.7519,-1.7519,-1.7519,-1.7338,-1.7356,-1.7389,-1.7425,-1.7447,-1.7478,-1.7508,-1.7531,-1.7559,-1.7562,-1.7563,-1.7563,-1.7491,-1.7473,-1.7522,-1.7522,-1.7522,-1.7521,-1.7521,-1.7418,-1.7401,-1.7453,-1.7475,-1.7518,-1.7554,-1.7565,-1.7611,-1.7631,-1.7652,-1.7649,-1.7594,-1.7593,-1.7588,-1.7573,-1.7646,-1.7646,-1.7646,-1.7646,-1.7458,-1.7457,-1.7512,-1.7547,-1.7583,-1.7597,-1.7657,-1.7682,-1.7705,-1.7718,-1.7709,-1.769,-1.7684,-1.7687,-1.768,-1.7666,-1.776,-1.7761,-1.7761,-1.7508,-1.7511,-1.756,-1.758,-1.7614,-1.7644,-1.7701,-1.7743,-1.7766,-1.7766,-1.7729,-1.7725,-1.7694,-1.7684,-1.7683,-1.7671,-1.7646,0,0]},{"header":{"parameterUnit":"m.s-1","parameterCategory":1,"la1":30.2992,"la2":30.254,"lo1":-89.0895,"lo2":-89.0443,"dy":0.0025,"dx":0.0025,"nx":19,"ny":19,"refTime":"2026-04-04T21:00:00:Z","depth":0,"parameterNumber":3,"parameterNumberName":"V-component_of_WINDS"},"data":[0,0,0,4.2965,4.2967,4.3068,4.3069,4.3197,4.3199,0,0,0,0,0,0,0,0,0,0,0,4.2933,4.2934,4.2965,4.2967,4.3068,4.3069,4.3197,4.3199,0,0,0,0,0,0,0,0,0,0,0,4.2933,4.2934,4.2935,4.2967,4.3068,4.3069,4.3197,4.3121,0,0,0,0,0,0,0,0,0,0,4.3023,4.2992,4.2934,4.2935,4.2968,4.3068,4.3069,4.3117,4.3126,4.3151,0,4.3173,0,4.3188,4.3207,4.3208,0,0,0,4.2968,4.2985,4.3014,4.2935,4.2969,4.3068,4.3023,4.3122,4.3131,4.3162,4.3175,4.3179,4.319,4.3208,4.3209,4.3352,4.3353,0,0,4.2962,4.2951,4.3007,4.302,4.3004,4.302,4.3026,4.3128,4.314,4.3175,4.3182,4.3192,4.3209,4.321,4.3352,4.3353,0,0,0,4.2946,4.2947,4.2973,4.3015,4.3033,4.3022,4.303,4.3136,4.3145,4.3184,4.3194,4.3209,4.3211,4.3351,4.3352,4.3373,0,0,0,4.2942,4.2937,4.2971,4.2965,4.3031,4.3086,4.3036,4.3138,4.315,4.3193,4.321,4.3212,4.335,4.3352,4.337,4.3384,0,0,0,4.2927,4.2935,4.295,4.2964,4.3007,4.3084,4.31,4.3141,4.3156,4.3208,4.3213,4.335,4.3351,4.3369,4.3381,4.3419,0,0,0,4.2908,4.2965,4.295,4.3018,4.3006,4.3096,4.3099,4.3167,4.3213,4.321,4.3351,4.3352,4.3368,4.3379,4.3417,4.345,4.3462,0,0,4.2974,4.2973,4.3014,4.3003,4.3093,4.3081,4.3175,4.3228,4.3243,4.3315,4.3319,4.3371,4.3381,4.3419,4.3535,4.3544,0,0,0,4.3031,4.3061,4.3087,4.3131,4.3174,4.3212,4.3252,4.3273,4.3335,4.3278,4.3396,4.3402,4.3425,4.3441,4.3449,4.347,4.3359,4.3359,4.3359,4.3107,4.3125,4.3195,4.3226,4.3269,4.3311,4.3348,4.3383,4.3387,4.3415,4.3436,4.3504,4.3523,4.3529,4.3551,4.3455,4.3455,4.3455,4.3455,4.3206,4.3251,4.3258,4.3328,4.3347,4.3407,4.3451,4.3453,4.3512,4.3489,4.351,4.3484,4.3539,4.3559,4.3457,4.3456,4.3456,4.3456,4.3456,4.3257,4.3282,4.3307,4.3375,4.3425,4.3455,4.3512,4.3527,4.3542,4.3563,4.3588,4.3588,4.359,4.3574,4.3574,4.3575,4.3575,4.3575,4.3575,4.3301,4.3328,4.3374,4.3427,4.3459,4.3503,4.3549,4.3581,4.3621,4.3627,4.3628,4.363,4.3541,4.3518,4.3579,4.3578,4.3578,4.3577,4.3577,4.3394,4.3376,4.3447,4.348,4.3544,4.3595,4.3614,4.3679,4.3708,4.3737,4.3736,4.3667,4.3667,4.3661,4.3642,4.3731,4.3731,4.3731,4.3731,4.3438,4.344,4.3518,4.3568,4.362,4.3646,4.3728,4.3766,4.3801,4.3821,4.3811,4.3788,4.3781,4.3785,4.3776,4.3759,4.3875,4.3875,4.3875,4.3497,4.3505,4.3571,4.3606,4.3659,4.3704,4.3782,4.3842,4.3878,4.3882,4.3837,4.3831,4.3794,4.3781,4.3781,4.3767,4.3736,0,0]}]]